x

8461490 - New London, Ct (nlnc3) Weather Station

7:54 - Thu 27th Jul 2017 All times are EDT. -4 hours from GMT.

  • Wind
    5mph, 7mph gusts
  • Sea Temp 70°f
  • Air Temp 67°f
  • Sea Pressure 1017.5mb
  • 8461490 - New London, Ct
  • 8461490 - New London, Ct

More Historic Weather Station data

Upgrade to MSW Pro to gain access to the past 30 days of data for over 8000 Wavebouys and Weather Stations around the globe.

Join Pro

Comparision Forecast

View Surf forecast
   
jeu. 07/27 7:54 5 7 mph 1017.5mb 70f 67f
7:48 3 6 mph 1017.5mb 70f 67f
7:42 3 6 mph 1017.5mb 69f 67f
7:36 3 6 mph 1017.6mb 70f 67f
7:30 3 8 mph 1017.7mb 69f 67f
7:24 3 6 mph 1017.7mb 70f 66f
7:18 3 5 mph 1017.8mb 70f 66f
7:12 2 3 mph 1017.7mb 69f 66f
7:06 2 3 mph 1017.8mb 69f 65f
7:00 2 3 mph 1017.7mb 69f 65f
6:54 2 2 mph 1017.6mb 69f 65f
6:48  -  1 mph 1017.6mb 69f 65f
6:42  -  0 mph 1017.6mb 69f 65f
6:36  -  1 mph 1017.6mb 69f 65f
6:30  -  1 mph 1017.5mb 69f 64f
6:24  -  1 mph 1017.6mb 69f 64f
6:18  -  1 mph 1017.7mb 69f 64f
6:12 1 2 mph 1017.7mb 69f 64f
6:06 1 2 mph 1017.8mb 69f 64f
6:00 1 3 mph 1017.8mb 69f 64f
5:54 2 2 mph 1017.8mb 68f 64f
5:48 2 3 mph 1017.8mb 68f 64f
5:42 3 3 mph 1017.7mb 68f 64f
5:36 2 5 mph 1017.5mb 68f 65f
5:30 3 5 mph 1017.6mb 68f 65f
5:24 3 6 mph 1017.5mb 68f 64f
5:18 5 6 mph 1017.6mb 68f 64f
5:12 3 5 mph 1017.7mb 68f 64f
5:06 1 2 mph 1017.9mb 68f 64f
5:00 1 2 mph 1018.1mb 68f 64f
4:54  -  1 mph 1018.1mb 68f 64f
4:48  -  2 mph 1018mb 69f 63f
4:42  -  2 mph 1018.1mb 69f 63f
4:36 1 2 mph 1018.2mb 69f 63f
4:30 1 2 mph 1018mb 69f 64f
4:24 1 2 mph 1017.9mb 69f 63f
4:18 2 2 mph 1017.9mb 68f 64f
4:12 2 5 mph 1017.7mb 68f 64f
4:06 3 3 mph 1017.6mb 68f 64f
4:00 1 2 mph 1017.9mb 69f 64f
3:54  -  2 mph 1018mb 68f 64f
3:48  -  1 mph 1018.2mb 68f 64f
3:42  -  2 mph 1018.2mb 68f 64f
3:36 2 3 mph 1018.3mb 68f 64f
3:30 2 3 mph 1018.4mb 68f 64f
3:24 2 5 mph 1018.3mb 68f 64f
3:18 2 2 mph 1018.4mb 68f 64f
3:12 1 3 mph 1018.5mb 68f 64f
3:06 2 5 mph 1018.5mb 68f 65f
3:00 3 5 mph 1018.3mb 68f 65f
2:54 2 5 mph 1018.5mb 68f 65f
2:48 2 5 mph 1018.6mb - -
2:42 5 5 mph 1018.6mb - -
2:36 2 5 mph 1018.8mb - -
2:30 2 3 mph 1018.9mb 67f 65f
2:24  -  2 mph 1019mb 67f 64f
2:18  -  2 mph 1019.1mb 67f 64f
2:12  -  3 mph 1019.2mb 67f 64f
2:06 3 3 mph 1019.3mb 67f 64f
2:00  -  2 mph 1019.2mb 67f 65f
1:54  -  2 mph 1019.2mb 67f 65f
1:48 1 3 mph 1019.3mb 67f 65f
1:42 1 2 mph 1019.3mb 67f 65f
1:36  -  1 mph 1019.4mb 67f 65f
1:30 1 3 mph 1019.5mb 67f 65f
1:24 2 5 mph 1019.5mb 67f 65f
1:18 3 5 mph 1019.4mb 67f 65f
1:12 2 2 mph 1019.4mb 67f 65f
1:06 2 2 mph 1019.6mb 67f 65f
1:00 2 3 mph 1019.7mb 67f 65f
12:54 2 5 mph 1019.7mb 67f 65f
12:48 2 3 mph 1019.6mb 67f 65f
12:42 2 5 mph 1019.7mb 68f 65f
12:36 2 3 mph 1019.8mb 68f 66f
12:30 3 5 mph 1019.8mb 68f 66f
12:24 2 3 mph 1019.9mb 68f 66f
12:18 1 2 mph 1019.9mb 68f 66f
12:12 1 3 mph 1020mb 68f 66f
12:06 2 5 mph 1020mb 68f 66f
12:00 3 5 mph 1020mb 68f 66f
mer. 07/26 11:54 3 6 mph 1020mb 68f 67f
11:48 3 6 mph 1020.1mb 69f 67f
11:42 3 5 mph 1020.3mb 69f 67f
11:36 5 6 mph 1020.4mb 69f 67f
11:30 5 6 mph 1020.5mb 69f 67f
11:24 3 5 mph 1020.4mb 69f 67f
11:18 3 6 mph 1020.4mb 69f 67f
11:12 5 6 mph 1020.4mb 69f 67f
11:06 3 7 mph 1020.4mb 69f 67f
11:00 3 6 mph 1020.4mb 69f 67f
10:54 5 6 mph 1020.5mb 69f 67f
10:48 5 7 mph 1020.4mb 69f 67f
10:42 6 8 mph 1020.5mb 69f 67f
10:36 3 5 mph 1020.6mb 69f 67f
10:30 2 6 mph 1020.7mb 69f 67f
10:24 5 7 mph 1020.7mb 69f 67f
10:18 5 7 mph 1020.7mb 69f 68f
10:12 5 7 mph 1020.7mb 69f 68f
10:06 6 7 mph 1020.6mb 69f 68f
10:00 6 7 mph 1020.6mb 69f 68f
9:54 6 7 mph 1020.7mb 69f 68f
9:48 6 8 mph 1020.7mb 69f 68f
9:42 6 7 mph 1020.7mb 69f 68f
9:36 6 7 mph 1020.7mb 69f 68f
9:30 6 8 mph 1020.7mb 69f 68f
9:24 6 7 mph 1020.7mb 69f 69f
9:18 3 7 mph 1020.7mb 68f 69f
9:12 6 7 mph 1020.8mb 68f 69f
9:06 6 9 mph 1020.7mb 68f 69f
9:00 7 9 mph 1020.7mb 68f 69f
8:54 6 9 mph 1020.7mb 68f 69f
8:48 7 9 mph 1020.8mb 68f 69f
8:42 6 7 mph 1020.7mb 68f 69f
8:36 6 8 mph 1020.6mb 68f 70f
8:30 6 8 mph 1020.5mb 68f 70f
8:24 6 7 mph 1020.5mb 69f 70f
8:18 6 7 mph 1020.3mb 69f 70f
8:12 6 7 mph 1020.3mb 69f 71f
8:06 6 7 mph 1020.4mb 69f 71f
8:00 2 6 mph 1020.5mb 69f 71f
7:54 5 8 mph 1020.5mb 69f 71f
7:48 5 7 mph 1020.7mb 69f 71f
7:42 5 9 mph 1020.7mb 70f 71f
7:36 8 9 mph 1020.7mb 70f 71f
7:30 8 9 mph 1020.7mb 69f 71f
7:24 6 8 mph 1020.7mb 69f 72f
7:18 5 8 mph 1020.7mb 69f 72f
7:12 7 9 mph 1020.7mb 69f 72f
7:06 8 9 mph 1020.9mb 69f 72f
7:00 8 9 mph 1021.1mb 69f 72f
6:54 9 10 mph 1021.1mb 69f 72f
6:48 9 10 mph 1021mb 69f 72f
6:42 9 9 mph 1020.9mb 69f 73f
6:36 8 9 mph 1021mb 70f 73f
6:30 8 9 mph 1021.1mb 70f 73f
6:24 8 9 mph 1021.1mb 69f 73f
6:18 8 10 mph 1021.1mb 69f 73f
6:12 9 11 mph 1021mb 69f 73f
6:06 9 11 mph 1020.9mb 69f 73f
6:00 9 10 mph 1020.9mb 69f 73f
5:54 8 9 mph 1021mb 69f 73f
5:48 7 10 mph 1020.9mb 69f 73f
5:42 10 11 mph 1020.8mb 69f 73f
5:36 10 11 mph 1020.9mb 68f 73f
5:30 9 10 mph 1021mb 68f 73f
5:24 8 10 mph 1021mb 68f 73f
5:18 9 10 mph 1021.1mb 68f 74f
5:12 8 9 mph 1021.2mb 68f 74f
5:06 8 10 mph 1021.3mb 68f 74f
5:00 9 10 mph 1021.2mb 68f 74f
4:54 9 11 mph 1021.2mb 68f 73f
4:48 8 10 mph 1021.3mb 68f 73f
4:42 9 10 mph 1021.3mb 67f 73f
4:36 8 10 mph 1021.4mb 67f 73f
4:30 9 11 mph 1021.4mb 68f 74f
4:24 9 11 mph 1021.5mb 67f 74f
4:18 9 11 mph 1021.6mb 67f 74f
4:12 9 10 mph 1021.6mb 67f 74f
4:06 9 10 mph 1021.8mb 67f 74f
4:00 9 11 mph 1021.8mb 67f 74f
3:54 10 13 mph 1021.7mb 67f 74f
3:48 10 11 mph 1021.7mb 67f 74f
3:42 9 11 mph 1021.8mb 68f 74f
3:36 9 11 mph 1021.9mb 67f 74f
3:30 10 11 mph 1021.9mb 67f 73f
3:24 10 13 mph 1021.8mb 67f 73f
3:18 10 11 mph 1021.9mb 67f 74f
3:12 9 10 mph 1022.1mb 67f 74f
3:06 6 10 mph 1022.2mb 67f 73f
3:00 7 10 mph 1021.9mb 67f 73f
2:54 8 10 mph 1021.8mb 67f 73f
2:48 9 10 mph 1021.9mb 67f 73f
2:42 8 10 mph 1022.1mb 68f 73f
2:36 9 11 mph 1022.2mb 67f 73f
2:30 10 11 mph 1022.2mb 67f 72f
2:24 10 13 mph 1022.4mb 67f 72f
2:18 10 13 mph 1022.4mb 67f 73f
2:12 9 11 mph 1022.5mb 67f 73f
2:06 8 10 mph 1022.6mb 67f 72f
2:00 8 11 mph 1022.7mb 66f 72f
1:54 10 11 mph 1022.7mb 67f 72f
1:48 9 11 mph 1022.7mb 67f 72f
1:42 7 10 mph 1022.8mb 67f 72f
1:36 9 11 mph 1022.8mb 67f 70f
1:30 7 10 mph 1022.8mb 67f 70f
1:24 6 10 mph 1022.8mb 67f 72f
1:18 8 10 mph 1022.8mb 67f 71f
1:12 9 10 mph 1022.9mb 67f 70f
1:06 7 10 mph 1022.9mb 67f 71f
1:00 9 11 mph 1022.9mb 67f 71f
12:54 9 13 mph 1022.9mb 67f 71f
12:48 9 11 mph 1023mb 67f 71f
12:42 10 11 mph 1023mb 67f 71f
12:36 9 11 mph 1023.1mb 67f 71f
12:30 9 10 mph 1023.2mb 67f 71f
12:24 8 11 mph 1023.2mb 67f 71f
12:18 9 11 mph 1023.1mb 67f 71f
12:12 7 13 mph 1023.2mb 67f 71f
12:06 10 13 mph 1023.2mb 67f 70f
12:00 9 11 mph 1023.1mb 67f 71f
11:54 10 13 mph 1023.1mb 67f 70f
11:48 7 10 mph 1023.2mb 67f 71f
11:42 8 10 mph 1023.2mb 67f 71f
11:36 8 10 mph 1023.3mb 67f 72f
11:30 8 13 mph 1023.3mb 67f 72f
11:24 7 9 mph 1023.4mb 67f 72f
11:18 7 9 mph 1023.4mb 67f 72f
11:12 2 3 mph 1023.4mb 67f 74f
11:06 1 3 mph 1023.5mb 67f 73f
11:00 5 6 mph 1023.7mb 67f 74f
10:54 3 5 mph 1023.8mb 67f 73f
10:48 5 6 mph 1023.8mb 67f 73f
10:42 3 6 mph 1023.9mb 67f 73f
10:36 2 5 mph 1023.9mb 67f 73f
10:30 3 6 mph 1023.7mb 67f 71f
10:24 3 6 mph 1023.6mb 67f 72f
10:18 5 7 mph 1023.7mb 67f 71f
10:12 5 6 mph 1023.8mb 67f 71f
10:06 3 6 mph 1024mb 67f 71f
10:00 2 6 mph 1024.1mb 67f 71f
9:54 3 5 mph 1024mb 66f 70f
9:48 3 5 mph 1023.9mb 67f 70f
9:42 3 5 mph 1023.9mb 66f 69f
9:36 5 6 mph 1024mb 66f 68f
9:30 5 6 mph 1024mb 66f 68f
9:24 3 7 mph 1023.9mb 66f 68f
9:18 5 7 mph 1024mb 66f 67f
9:12 6 8 mph 1024.1mb 66f 66f
9:06 6 8 mph 1024.1mb 66f 66f
9:00 6 9 mph 1024.2mb 66f 66f
8:54 6 8 mph 1024.1mb 67f 66f
8:48 3 8 mph 1024mb 67f 66f
8:42 5 8 mph 1024.1mb 66f 65f
8:36 6 10 mph 1024mb 66f 65f
8:30 3 8 mph 1023.9mb 67f 65f
8:24 3 8 mph 1023.8mb 67f 65f
8:18 3 7 mph 1023.7mb 67f 64f
8:12 5 8 mph 1023.6mb 67f 64f
8:06 6 8 mph 1023.6mb 67f 63f
8:00 7 9 mph 1023.7mb 67f 63f
7:54 6 8 mph 1023.7mb 67f 63f
7:48 6 8 mph 1023.6mb 67f 62f
7:42 3 8 mph 1023.6mb 67f 63f
7:36 5 8 mph 1023.6mb 67f 62f
7:30 5 8 mph 1023.6mb 67f 62f
7:24 6 9 mph 1023.6mb 67f 61f
7:18 5 9 mph 1023.6mb 67f 61f
7:12 6 9 mph 1023.5mb 67f 61f
7:06 5 8 mph 1023.6mb 67f 61f
7:00 5 8 mph 1023.6mb 67f 60f
6:54 6 7 mph 1023.7mb 67f 60f
6:48 5 8 mph 1023.6mb 67f 60f
6:42 2 6 mph 1023.5mb 67f 60f
6:36 5 9 mph 1023.5mb 67f 60f
6:30 2 6 mph 1023.4mb 67f 60f
6:24 2 6 mph 1023.4mb 67f 59f
6:18 2 6 mph 1023.4mb 67f 59f
6:12 2 8 mph 1023.4mb 67f 58f
6:06 5 7 mph 1023.3mb 67f 58f
6:00 5 6 mph 1023.3mb 67f 58f
5:54 5 7 mph 1023.2mb 67f 58f
5:48 3 7 mph 1023.1mb 67f 58f
5:42 3 6 mph 1023.1mb 67f 58f
5:36 3 6 mph 1023.1mb 67f 58f
5:30 5 6 mph 1023mb 67f 58f
5:24 3 6 mph 1023mb 67f 58f
5:18 6 7 mph 1022.9mb 67f 58f
5:12 3 6 mph 1022.8mb 67f 58f
5:06 5 6 mph 1022.7mb 67f 58f
5:00 3 6 mph 1022.7mb 67f 58f
4:54 2 7 mph 1022.7mb 67f 58f
4:48 3 7 mph 1022.6mb 67f 58f
4:42 5 7 mph 1022.7mb 67f 58f
4:36 3 7 mph 1022.7mb 67f 58f
4:30 3 6 mph 1022.8mb 67f 58f
4:24 5 6 mph 1022.9mb 67f 58f
4:18 6 6 mph 1022.8mb 67f 58f
4:12 3 6 mph 1022.8mb 67f 58f
4:06 5 6 mph 1022.9mb 67f 58f
4:00 3 7 mph 1022.9mb 67f 58f
3:54 3 6 mph 1023mb 67f 58f
3:48 3 7 mph 1023mb 67f 58f
3:42 5 7 mph 1022.9mb 67f 58f
3:36 2 6 mph 1023mb 67f 58f
3:30 2 6 mph 1023.1mb 67f 58f
3:24 5 6 mph 1023.1mb 67f 58f
3:18 2 6 mph 1023.1mb 67f 58f
3:12 5 6 mph 1023.1mb 67f 58f
3:06 5 6 mph 1023mb 67f 58f
3:00 5 6 mph 1023mb 67f 58f
2:54 5 6 mph 1022.9mb 67f 59f
2:48 3 6 mph 1022.8mb 67f 59f
2:42 5 6 mph 1022.8mb 67f 59f
2:36 3 6 mph 1022.9mb 67f 59f
2:30 5 6 mph 1022.9mb 67f 59f
2:24 5 6 mph 1023mb 67f 59f
2:18 2 6 mph 1023mb 67f 59f
2:12 5 6 mph 1023.2mb 67f 59f
2:06 3 6 mph 1023.2mb 67f 59f
2:00 5 6 mph 1023.2mb 67f 59f
1:54 3 6 mph 1023.2mb 67f 59f
1:48 2 6 mph 1023.2mb - -
1:42 3 6 mph 1023.2mb - -
1:36 2 5 mph 1023.2mb - -
1:30 5 6 mph 1023.1mb 67f 59f
1:24 5 6 mph 1023.1mb 67f 59f
1:18 5 6 mph 1023mb 67f 60f
1:12 3 6 mph 1023mb 66f 60f
1:06 2 5 mph 1023mb 67f 60f
1:00 5 7 mph 1023mb 67f 60f
12:54 3 6 mph 1023.1mb 67f 60f
12:48 5 7 mph 1023mb 67f 60f
12:42 2 5 mph 1023mb 67f 60f
12:36 3 6 mph 1023.1mb 67f 60f
12:30 3 3 mph 1023.1mb 67f 60f
12:24 3 5 mph 1023.1mb 67f 60f
12:18 3 6 mph 1023.2mb 67f 60f
12:12 2 3 mph 1023.3mb 67f 60f
12:06 3 5 mph 1023.2mb 67f 61f
12:00 3 6 mph 1023.2mb 67f 61f
mar. 07/25 11:54 3 6 mph 1023.1mb 67f 61f
11:48 3 6 mph 1023.2mb 67f 61f
11:42 2 5 mph 1023.2mb 67f 61f
11:36 3 5 mph 1023.3mb 67f 61f
11:30 3 5 mph 1023.2mb 67f 61f
11:24 1 5 mph 1023.2mb 67f 61f
11:18 2 5 mph 1023.3mb 67f 61f
11:12 1 3 mph 1023.1mb 67f 61f
11:06  -  2 mph 1023.1mb 67f 61f
11:00 2 3 mph 1023.1mb 67f 61f
10:54 3 5 mph 1023mb 67f 61f
10:48 2 3 mph 1022.9mb 67f 62f
10:42  -  2 mph 1022.8mb 67f 62f
10:36 3 5 mph 1022.7mb 67f 62f
10:30 3 5 mph 1022.7mb 67f 62f
10:24 2 5 mph 1022.7mb 67f 62f
10:18 1 2 mph 1022.6mb 67f 62f
10:12 1 3 mph 1022.7mb 67f 62f
10:06 2 5 mph 1022.7mb 67f 62f
10:00 2 5 mph 1022.6mb 67f 63f
9:54 2 3 mph 1022.6mb 67f 63f
9:48 2 3 mph 1022.6mb 67f 63f
9:42 1 2 mph 1022.6mb 67f 63f
9:36 2 2 mph 1022.5mb 67f 63f
9:30  -  2 mph 1022.5mb 67f 63f
9:24  -  2 mph 1022.4mb 67f 63f
9:18 2 3 mph 1022.5mb 67f 63f
9:12 2 3 mph 1022.4mb 66f 63f
9:06 3 3 mph 1022.5mb 67f 63f
9:00 2 5 mph 1022.4mb 67f 64f
8:54 1 3 mph 1022.3mb 67f 64f
8:48 1 5 mph 1022.3mb 67f 64f
8:42 3 5 mph 1022.3mb 67f 64f
8:36 1 5 mph 1022.3mb 67f 64f
8:30 3 5 mph 1022.2mb 67f 64f
8:24 2 3 mph 1022.1mb 67f 64f
8:18 3 5 mph 1022mb 67f 64f
8:12 3 6 mph 1021.9mb 67f 64f
8:06 2 5 mph 1021.9mb 67f 64f
8:00 5 6 mph 1021.9mb 67f 64f
7:54 2 5 mph 1021.9mb 67f 64f
7:48 3 5 mph 1021.9mb 67f 64f
7:42 3 5 mph 1021.9mb 67f 64f
7:36 1 6 mph 1021.9mb 68f 65f
7:30 5 7 mph 1021.8mb 68f 64f
7:24 3 7 mph 1021.8mb 68f 65f
7:18 3 6 mph 1021.8mb 68f 65f
7:12 2 5 mph 1021.7mb 68f 65f
7:06 3 6 mph 1021.6mb 68f 65f
7:00 3 7 mph 1021.5mb 68f 65f
6:54 3 7 mph 1021.5mb 68f 65f
6:48 3 6 mph 1021.5mb 68f 65f
6:42 2 5 mph 1021.3mb 68f 65f
6:36 1 6 mph 1021.1mb 68f 65f
6:30 3 6 mph 1021.1mb 68f 65f
6:24 3 6 mph 1021.1mb 68f 65f
6:18 3 6 mph 1021mb 68f 65f
6:12 5 7 mph 1021mb 68f 65f
6:06 3 6 mph 1021mb 68f 65f
6:00 2 5 mph 1020.9mb 68f 65f
5:54 3 6 mph 1020.9mb 68f 65f
5:48 3 6 mph 1021mb 68f 65f
5:42 5 6 mph 1020.9mb 68f 65f
5:36 1 3 mph 1020.9mb 68f 65f
5:30 3 5 mph 1020.9mb 68f 65f
5:24 3 6 mph 1020.9mb 68f 65f
5:18 3 7 mph 1020.9mb 68f 65f
5:12 5 7 mph 1020.8mb 68f 65f
5:06 6 7 mph 1020.7mb 68f 65f
5:00 5 8 mph 1020.7mb 68f 65f
4:54 5 8 mph 1020.6mb 68f 65f
4:48 5 6 mph 1020.5mb 68f 65f
4:42 3 6 mph 1020.5mb 68f 66f
4:36 3 6 mph 1020.5mb 68f 66f
4:30 3 6 mph 1020.4mb 67f 66f
4:24 6 7 mph 1020.4mb 67f 66f
4:18 5 6 mph 1020.4mb 67f 66f
4:12 5 6 mph 1020.3mb 68f 66f
4:06 3 6 mph 1020.3mb 67f 67f
4:00 3 6 mph 1020.3mb 67f 66f
3:54 3 5 mph 1020.3mb 67f 66f
3:48 1 3 mph 1020.3mb 67f 66f
3:42 3 6 mph 1020.4mb 67f 65f
3:36 2 5 mph 1020.5mb 67f 65f
3:30 3 5 mph 1020.5mb 67f 65f
3:24 2 5 mph 1020.4mb 67f 65f
3:18 3 6 mph 1020.4mb 67f 65f
3:12 3 7 mph 1020.3mb 67f 65f
3:06 1 6 mph 1020.3mb 67f 65f
3:00 5 8 mph 1020.2mb 67f 65f
2:54 2 5 mph 1020.2mb 67f 65f
2:48 3 7 mph 1020.1mb 67f 65f
2:42 5 6 mph 1020.1mb 67f 65f
2:36 3 8 mph 1020mb 67f 65f
2:30 3 8 mph 1019.9mb 67f 65f
2:24 6 8 mph 1019.8mb 67f 65f
2:18 2 5 mph 1019.8mb 67f 65f
2:12 3 6 mph 1019.8mb 67f 65f
2:06 3 8 mph 1019.8mb 67f 64f
2:00 5 6 mph 1019.8mb 67f 64f
1:54 6 8 mph 1019.8mb 67f 64f
1:48 3 7 mph 1019.6mb 67f 64f
1:42 5 7 mph 1019.5mb 67f 64f
1:36 5 7 mph 1019.5mb 67f 65f
1:30 3 7 mph 1019.5mb 67f 64f
1:24 2 7 mph 1019.4mb 67f 64f
1:18 3 7 mph 1019.5mb 67f 64f
1:12 6 8 mph 1019.5mb 67f 64f
1:06 7 11 mph 1019.5mb 67f 64f
1:00 5 10 mph 1019.4mb 67f 64f
12:54 6 9 mph 1019.4mb 67f 64f
12:48 5 7 mph 1019.4mb 67f 64f
12:42 5 8 mph 1019.4mb 67f 64f
12:36 5 9 mph 1019.4mb 67f 64f
12:30 3 7 mph 1019.5mb 67f 63f
12:24 6 9 mph 1019.5mb 67f 63f
12:18 3 8 mph 1019.4mb 67f 64f
12:12 7 9 mph 1019.4mb 67f 63f
12:06 6 9 mph 1019.5mb 67f 63f
12:00 5 9 mph 1019.4mb 67f 64f
11:54 3 7 mph 1019.3mb 67f 64f
11:48 5 7 mph 1019.2mb 67f 64f
11:42 3 6 mph 1019.2mb 67f 63f
11:36 3 6 mph 1019mb 67f 63f
11:30 3 6 mph 1019mb 67f 63f
11:24 3 7 mph 1018.9mb 67f 63f
11:18 5 7 mph 1018.8mb 67f 63f
11:12 2 5 mph 1018.7mb 67f 63f
11:06 3 6 mph 1018.6mb 67f 63f
11:00 3 6 mph 1018.6mb 67f 62f
10:54 5 8 mph 1018.5mb 67f 62f
10:48 3 9 mph 1018.5mb 67f 62f
10:42 2 6 mph 1018.5mb 67f 62f
10:36 7 9 mph 1018.5mb 67f 61f
10:30 5 9 mph 1018.5mb 67f 62f
10:24 3 7 mph 1018.5mb 67f 62f
10:18 3 8 mph 1018.5mb 67f 62f
10:12 6 8 mph 1018.4mb 67f 61f
10:06 5 9 mph 1018.4mb 67f 61f
10:00 2 7 mph 1018.5mb 67f 61f
9:54 5 8 mph 1018.4mb 67f 61f
9:48 2 8 mph 1018.3mb 67f 61f
9:42 3 7 mph 1018.3mb 67f 61f
9:36 3 6 mph 1018.3mb 67f 61f
9:30 5 7 mph 1018.3mb 67f 61f
9:24 3 7 mph 1018.3mb 67f 60f
9:18 2 7 mph 1018.2mb 67f 61f
9:12 3 7 mph 1018.2mb 67f 61f
9:06 5 7 mph 1018.2mb 67f 61f
9:00 5 7 mph 1018.3mb 67f 61f
8:54 2 5 mph 1018.2mb 67f 61f
8:48 1 6 mph 1018.2mb 67f 61f
8:42 2 5 mph 1018.2mb 67f 61f
8:36 2 6 mph 1018.1mb 67f 60f
8:30 3 6 mph 1018mb 67f 60f
8:24 3 5 mph 1018mb 67f 60f
8:18 3 6 mph 1017.9mb 67f 60f
8:12 2 6 mph 1017.8mb 67f 60f
8:06 2 5 mph 1017.7mb 67f 60f
8:00 2 5 mph 1017.6mb 67f 60f
7:54 5 5 mph 1017.5mb 67f 60f
7:48 3 5 mph 1017.4mb 67f 60f
7:42 3 7 mph 1017.3mb 67f 60f
7:36 3 6 mph 1017.3mb 67f 60f
7:30 3 6 mph 1017.2mb 67f 60f
7:24 3 6 mph 1017.2mb 67f 60f
7:18 3 6 mph 1017.2mb 67f 60f
7:12 3 6 mph 1017mb 67f 60f
7:06 2 6 mph 1017mb 68f 60f
7:00 3 6 mph 1016.9mb 68f 60f
6:54 5 7 mph 1016.8mb 68f 60f
6:48 3 6 mph 1016.7mb 68f 60f
6:42 3 6 mph 1016.8mb 68f 60f
6:36 3 6 mph 1016.9mb 68f 59f
6:30 1 3 mph 1016.8mb 68f 60f
6:24 2 6 mph 1016.6mb 68f 60f
6:18 2 6 mph 1016.4mb 68f 59f
6:12 5 7 mph 1016.2mb 68f 60f
6:06 1 5 mph 1016.3mb 68f 60f
6:00 2 7 mph 1016.2mb 68f 60f
5:54 3 6 mph 1016.2mb 68f 60f
5:48 3 7 mph 1016.2mb 68f 60f
5:42 5 8 mph 1016.3mb 68f 60f
5:36 2 6 mph 1016.2mb 68f 60f
5:30 3 6 mph 1016.1mb 68f 60f
5:24 3 6 mph 1016.2mb 68f 60f
5:18 3 6 mph 1016.3mb 68f 60f
5:12 1 6 mph 1016.3mb 68f 60f
5:06 2 6 mph 1016.1mb 68f 60f
5:00 2 7 mph 1015.8mb 68f 60f
4:54 5 8 mph 1015.6mb 68f 60f
4:48 3 8 mph 1015.4mb 68f 60f
4:42 5 7 mph 1015.1mb 68f 60f
4:36 2 8 mph 1015.2mb 68f 60f
4:30 5 7 mph 1015.1mb 68f 60f
4:24 2 8 mph 1015.2mb 68f 60f
4:18 5 8 mph 1015.3mb 68f 60f
4:12 5 8 mph 1015.3mb 68f 60f
4:06 3 7 mph 1015.1mb 68f 60f
4:00 3 7 mph 1015.1mb 68f 60f
3:54 5 7 mph 1015.2mb 68f 60f
3:48 5 8 mph 1015.2mb 68f 60f
3:42 3 6 mph 1014.8mb 68f 60f
3:36 6 7 mph 1015mb 68f 60f
3:30 5 8 mph 1015.1mb 68f 60f
3:24 5 7 mph 1015.2mb 68f 60f
3:18 2 7 mph 1015.1mb 68f 60f
3:12 5 7 mph 1015.1mb 68f 60f
3:06 3 7 mph 1015.1mb 68f 60f
3:00 5 9 mph 1015.1mb 68f 60f
2:54 3 6 mph 1015.1mb 68f 60f
2:48 3 6 mph 1015mb - -
2:42 2 6 mph 1015mb - -
2:36 2 6 mph 1015mb - -
2:30 2 6 mph 1014.9mb 68f 61f
2:24 3 6 mph 1015mb 68f 60f
2:18 2 8 mph 1015mb 68f 60f
2:12 2 7 mph 1014.9mb 68f 60f
2:06 3 8 mph 1014.9mb 68f 60f
2:00 3 9 mph 1014.8mb 68f 60f
1:54 5 11 mph 1014.5mb 68f 60f
1:48 5 10 mph 1014.2mb 68f 60f
1:42 3 13 mph 1014mb 68f 60f
1:36 3 9 mph 1013.9mb 68f 61f
1:30 5 10 mph 1014.1mb 68f 61f
1:24 3 7 mph 1014.4mb 68f 61f
1:18 2 8 mph 1014.6mb 68f 61f
1:12 2 6 mph 1014.8mb 68f 61f
1:06 3 6 mph 1014.9mb 68f 61f
1:00 5 8 mph 1014.7mb 68f 61f
12:54 5 7 mph 1014.6mb 67f 61f
12:48 3 5 mph 1014.5mb 67f 61f
12:42 2 6 mph 1014.3mb 67f 61f
12:36 3 7 mph 1014.3mb 68f 61f
12:30 2 5 mph 1014.3mb 68f 61f
12:24 3 6 mph 1014.2mb 67f 61f
12:18 3 7 mph 1014.2mb 67f 61f
12:12 3 7 mph 1014.2mb 67f 61f
12:06 5 7 mph 1014.1mb 67f 61f
12:00 3 6 mph 1014.4mb 67f 61f
lun. 07/24 11:54 5 6 mph 1014.5mb 67f 61f
11:48 2 5 mph 1014.3mb 67f 61f
11:42 5 7 mph 1014mb 67f 61f
11:36 5 6 mph 1014mb 67f 61f
11:30 2 6 mph 1014.1mb 67f 61f
11:24 1 6 mph 1014mb 67f 61f
11:18 3 7 mph 1013.8mb 67f 61f
11:12 2 6 mph 1013.7mb 67f 61f
11:06 3 7 mph 1013.8mb 68f 61f
11:00 3 6 mph 1013.8mb 68f 61f
10:54 2 6 mph 1013.8mb 68f 61f
10:48 5 6 mph 1013.7mb 68f 61f
10:42 1 3 mph 1013.9mb 68f 61f
10:36 2 7 mph 1013.6mb 68f 61f
10:30 2 6 mph 1013.6mb 68f 61f
10:24 5 8 mph 1013.4mb 68f 61f
10:18 2 6 mph 1013.5mb 68f 61f
10:12 3 6 mph 1013.3mb 68f 61f
10:06 1 8 mph 1013.3mb 68f 61f
10:00 2 10 mph 1013.2mb 68f 61f
9:54 3 7 mph 1013mb 68f 61f
9:48 3 8 mph 1013.1mb 68f 61f
9:42 2 9 mph 1013.1mb 68f 61f
9:36 2 5 mph 1012.8mb 68f 61f
9:30 5 9 mph 1012.5mb 68f 61f
9:24 6 13 mph 1012.6mb 68f 61f
9:18 5 9 mph 1012.6mb 68f 61f
9:12 2 6 mph 1012.7mb 68f 61f
9:06 5 9 mph 1012.5mb 68f 61f
9:00 2 7 mph 1012.5mb 68f 61f
8:54 5 10 mph 1012.6mb 68f 61f
8:48 3 11 mph 1012.5mb 67f 61f
8:42 5 10 mph 1012.3mb 67f 61f
8:36 3 10 mph 1012.3mb 67f 61f
8:30 7 11 mph 1012.3mb 67f 61f
8:24 8 14 mph 1012.4mb 67f 62f
8:18 8 14 mph 1012.3mb 67f 62f
8:12 6 11 mph 1012.2mb 67f 62f
8:06 6 10 mph 1012.2mb 67f 62f
8:00 3 9 mph 1012mb 67f 62f
7:54 6 11 mph 1012mb 67f 62f
7:48 7 13 mph 1011.9mb 67f 62f
7:42 7 16 mph 1011.7mb 67f 62f
7:36 6 14 mph 1011.6mb 67f 62f
7:30 9 14 mph 1011.8mb 67f 62f
7:24 10 15 mph 1011.7mb 67f 62f
7:18 7 13 mph 1011.6mb 67f 62f
7:12 7 13 mph 1011.4mb 67f 62f
7:06 8 16 mph 1011.3mb 67f 62f
7:00 6 14 mph 1011.3mb 67f 62f
6:54 8 14 mph 1011.4mb 68f 62f
6:48 5 14 mph 1011.1mb 68f 62f
6:42 7 11 mph 1010.8mb 68f 62f
6:36 9 15 mph 1010.8mb 69f 62f
6:30 7 14 mph 1010.8mb 69f 62f
6:24 7 14 mph 1010.7mb 69f 62f
6:18 6 14 mph 1010.6mb 69f 62f
6:12 7 15 mph 1010.5mb 69f 62f
6:06 11 16 mph 1010.4mb 69f 62f
6:00 6 16 mph 1010.2mb 69f 62f
5:54 9 16 mph 1010.2mb 69f 62f
5:48 9 15 mph 1010.2mb 69f 62f
5:42 10 16 mph 1010.2mb 69f 62f
5:36 7 15 mph 1010.1mb 70f 62f
5:30 6 17 mph 1010.1mb 70f 62f
5:24 9 14 mph 1010.2mb 70f 62f
5:18 6 14 mph 1010.2mb 70f 62f
5:12 6 14 mph 1010.2mb 70f 62f
5:06 6 13 mph 1010.1mb 69f 62f
5:00 6 14 mph 1010.3mb 69f 62f
4:54 7 14 mph 1010.2mb 69f 62f
4:48 6 11 mph 1010.2mb 70f 61f
4:42 6 17 mph 1010.1mb 70f 61f
4:36 9 16 mph 1010.1mb 70f 61f
4:30 10 17 mph 1010mb 70f 61f
4:24 8 14 mph 1009.9mb 70f 61f
4:18 3 11 mph 1009.9mb 69f 62f
4:12 6 13 mph 1009.8mb 69f 61f
4:06 7 15 mph 1009.7mb 69f 61f
4:00 6 14 mph 1009.7mb 69f 61f
3:54 6 13 mph 1009.7mb 69f 61f
3:48 6 11 mph 1009.7mb 69f 61f
3:42 3 10 mph 1009.7mb 69f 61f
3:36 5 11 mph 1009.8mb 69f 60f
3:30 5 14 mph 1009.8mb 69f 60f
3:24 8 15 mph 1009.8mb 68f 60f
3:18 7 11 mph 1009.8mb 68f 61f
3:12 5 14 mph 1009.9mb 69f 61f
3:06 7 14 mph 1009.9mb 69f 61f
3:00 8 11 mph 1009.9mb 68f 61f
2:54 9 14 mph 1009.8mb 68f 61f
2:48 9 14 mph 1009.6mb 68f 60f
2:42 9 13 mph 1009.2mb 68f 60f
2:36 5 11 mph 1008.9mb 69f 61f
2:30 7 11 mph 1008.9mb 68f 60f
2:24 7 11 mph 1008.9mb 68f 60f
2:18 5 10 mph 1008.8mb 68f 61f
2:12 3 9 mph 1008.8mb 68f 61f
2:06 7 11 mph 1008.8mb 68f 60f
2:00 3 9 mph 1009mb 69f 60f
1:54 5 10 mph 1008.8mb 69f 60f
1:48 3 8 mph 1008.9mb 68f 60f
1:42 7 10 mph 1008.9mb 68f 60f
1:36 3 11 mph 1009.2mb 69f 60f
1:30 3 8 mph 1009.2mb 68f 61f
1:24 5 9 mph 1009mb 68f 60f
1:18 3 8 mph 1009.3mb 69f 60f
1:12 5 8 mph 1009.3mb 69f 60f
1:06 5 9 mph 1009.5mb 68f 60f
1:00 6 10 mph 1009.5mb 68f 60f
12:54 6 8 mph 1009.6mb 68f 60f
12:48 3 11 mph 1009.5mb 68f 61f
12:42 9 14 mph 1009.5mb 68f 60f
12:36 7 10 mph 1009.5mb 68f 61f
12:30 6 13 mph 1009.5mb 67f 61f
12:24 6 9 mph 1009.4mb 67f 61f
12:18 5 8 mph 1009.2mb 67f 61f
12:12 6 9 mph 1009.2mb 67f 62f
12:06 5 8 mph 1009.1mb 67f 62f
12:00 5 9 mph 1009.1mb 67f 61f
11:54 3 9 mph 1009.2mb 67f 62f
11:48 6 9 mph 1009.1mb 67f 61f
11:42 6 9 mph 1009.3mb 67f 62f
11:36 6 9 mph 1009.5mb 67f 62f
11:30 5 9 mph 1009.6mb 68f 62f
11:24 6 8 mph 1009.6mb 68f 62f
11:18 6 9 mph 1009.7mb 68f 62f
11:12 5 7 mph 1009.8mb 68f 62f
11:06 5 8 mph 1009.8mb 68f 62f
11:00 5 8 mph 1009.7mb 68f 62f
10:54 5 10 mph 1009.6mb 68f 62f
10:48 6 11 mph 1009.6mb 68f 62f
10:42 6 10 mph 1009.6mb 69f 62f
10:36 6 9 mph 1009.7mb 68f 62f
10:30 6 8 mph 1009.7mb 68f 62f
10:24 5 8 mph 1009.8mb 68f 62f
10:18 6 9 mph 1009.6mb 68f 61f
10:12 5 10 mph 1009.8mb 67f 61f
10:06 7 13 mph 1009.6mb 68f 61f
10:00 6 10 mph 1009.7mb 68f 61f
9:54 5 7 mph 1009.8mb 68f 61f
9:48 3 10 mph 1009.8mb 68f 61f
9:42 5 8 mph 1009.8mb 68f 60f
9:36 8 11 mph 1009.7mb 68f 60f
9:30 6 8 mph 1009.8mb 68f 60f
9:24 3 8 mph 1010mb 68f 60f
9:18 5 9 mph 1010.1mb 68f 61f
9:12 6 10 mph 1010.2mb 68f 60f
9:06 3 7 mph 1010.3mb 68f 61f
9:00 5 8 mph 1010.5mb 68f 60f
8:54 5 7 mph 1010.4mb 68f 61f
8:48 6 8 mph 1010.5mb 68f 60f
8:42 5 10 mph 1010.4mb 68f 60f
8:36 6 9 mph 1010.3mb 67f 61f
8:30 6 10 mph 1010.2mb 68f 61f
8:24 6 14 mph 1010.3mb 68f 61f
8:18 7 15 mph 1010mb 67f 61f
8:12 3 8 mph 1010.1mb 67f 61f
8:06 5 8 mph 1010.2mb 67f 61f
8:00 6 8 mph 1010mb 67f 61f
7:54 6 8 mph 1010.1mb 67f 61f
7:48 6 9 mph 1010.2mb 67f 61f
7:42 5 7 mph 1010.4mb 67f 61f
7:36 3 8 mph 1010.5mb 67f 61f
7:30 6 10 mph 1010.6mb 67f 61f
7:24 7 10 mph 1010.6mb 67f 61f
7:18 7 14 mph 1010.8mb 67f 62f
7:12 6 10 mph 1010.7mb 67f 62f
7:06 6 9 mph 1010.8mb 67f 62f
7:00 6 10 mph 1010.7mb 67f 62f
6:54 7 11 mph 1010.5mb 67f 62f
6:48 8 14 mph 1010.4mb 67f 62f
6:42 6 11 mph 1010.3mb 67f 62f
6:36 8 14 mph 1010.2mb 67f 62f
6:30 8 14 mph 1010.2mb 67f 62f
6:24 9 13 mph 1010mb 67f 62f
6:18 7 17 mph 1010.1mb 68f 62f
6:12 11 18 mph 1010mb 69f 62f
6:06 8 15 mph 1010.2mb 69f 62f
6:00 13 15 mph 1010.3mb 69f 62f
5:54 9 11 mph 1010.6mb 69f 62f
5:48 10 14 mph 1010.8mb 69f 63f
5:42 8 13 mph 1011mb 70f 63f
5:36 9 15 mph 1011mb 70f 63f
5:30 9 14 mph 1011mb 70f 63f
5:24 8 11 mph 1011.1mb 70f 64f
5:18 6 9 mph 1011.3mb 71f 64f
5:12 7 10 mph 1011.3mb 71f 64f
5:06 6 13 mph 1011.3mb 71f 64f
5:00 6 9 mph 1011.4mb 71f 64f
4:54 7 11 mph 1011.6mb 71f 64f
4:48 8 13 mph 1011.6mb 71f 65f
4:42 10 13 mph 1011.6mb 71f 65f
4:36 7 10 mph 1011.7mb 71f 65f
4:30 7 8 mph 1011.7mb 71f 66f
4:24 5 11 mph 1011.8mb 71f 66f
4:18 7 13 mph 1011.6mb 71f 66f
4:12 8 15 mph 1011.5mb 71f 67f
4:06 8 14 mph 1011.4mb 71f 67f
4:00 8 16 mph 1011.4mb 71f 67f
3:54 8 13 mph 1011.5mb 70f 67f
3:48 8 14 mph 1011.4mb 70f 67f
3:42 8 14 mph 1011.4mb 70f 67f
3:36 7 13 mph 1011.5mb 70f 67f
3:30 10 17 mph 1011.4mb 70f 67f
3:24 8 13 mph 1011.5mb 69f 67f
3:18 10 14 mph 1011.5mb 69f 67f
3:12 7 13 mph 1011.5mb 69f 67f
3:06 8 11 mph 1011.5mb 69f 67f
3:00 7 11 mph 1011.6mb 69f 67f
2:54 7 13 mph 1011.7mb 69f 67f
2:48 8 13 mph 1011.8mb 69f 67f
2:42 7 11 mph 1011.7mb 69f 67f
2:36 8 14 mph 1011.7mb 69f 67f
2:30 8 11 mph 1011.8mb 69f 67f
2:24 9 15 mph 1011.9mb 69f 67f
2:18 9 15 mph 1011.8mb 69f 67f
2:12 7 11 mph 1012mb 69f 67f
2:06 6 13 mph 1012.2mb 69f 67f
2:00 8 11 mph 1012.2mb 69f 67f
1:54 10 14 mph 1012.1mb 68f 67f
1:48 8 10 mph 1012.1mb 68f -
1:42 8 14 mph 1012.1mb 68f -
1:36 7 9 mph 1012.2mb 68f -
1:30 7 9 mph 1012.4mb 68f 67f
1:24 8 10 mph 1012.4mb 68f 68f
1:18 9 13 mph 1012.3mb 68f 68f
1:12 10 16 mph 1012.3mb 68f 68f
1:06 6 8 mph 1012.4mb 68f 68f
1:00 3 8 mph 1012.3mb 68f 68f
12:54 6 9 mph 1012.5mb 68f 68f
12:48 5 9 mph 1012.7mb 68f 68f
12:42 5 9 mph 1012.9mb 68f 68f
12:36 5 9 mph 1012.9mb 68f 68f
12:30 5 8 mph 1012.9mb 68f 68f
12:24 5 7 mph 1013mb 67f 68f
12:18 7 10 mph 1012.9mb 68f 68f
12:12 5 8 mph 1012.8mb 68f 68f
12:06 3 7 mph 1012.8mb 67f 68f
12:00 6 9 mph 1012.8mb 67f 68f
dim. 07/23 11:54 7 14 mph 1012.7mb 67f 68f
11:48 6 11 mph 1012.6mb 67f 68f
11:42 6 9 mph 1012.6mb 67f 69f
11:36 6 10 mph 1012.7mb 67f 69f
11:30 6 10 mph 1012.7mb 67f 69f
11:24 6 10 mph 1012.6mb 67f 69f
11:18 7 13 mph 1012.5mb 67f 69f
11:12 6 10 mph 1012.4mb 68f 69f
11:06 8 11 mph 1012.4mb 68f 69f
11:00 7 10 mph 1012.4mb 68f 69f
10:54 7 11 mph 1012.5mb 68f 69f
10:48 7 10 mph 1012.7mb 68f 69f
10:42 8 11 mph 1012.6mb 68f 69f
10:36 7 10 mph 1012.5mb 68f 69f
10:30 6 11 mph 1012.5mb 68f 69f
10:24 6 11 mph 1012.4mb 68f 69f
10:18 7 15 mph 1012.4mb 68f 69f
10:12 7 10 mph 1012.3mb 67f 69f
10:06 6 10 mph 1012.3mb 67f 69f
10:00 7 13 mph 1012.2mb 68f 69f
9:54 8 10 mph 1012.4mb 68f 70f
9:48 5 8 mph 1012.5mb 68f 70f
9:42 10 14 mph 1012.4mb 68f 70f
9:36 8 11 mph 1012.3mb 68f 70f
9:30 6 13 mph 1012.4mb 68f 70f
9:24 8 13 mph 1012.2mb 69f 69f
9:18 6 10 mph 1012.1mb 69f 69f
9:12 6 9 mph 1012.2mb 69f 70f
9:06 8 10 mph 1012.2mb 69f 70f
9:00 6 8 mph 1012.1mb 69f 69f
8:54 7 9 mph 1012mb 69f 70f
8:48 6 8 mph 1012.1mb 69f 70f
8:42 3 8 mph 1012.2mb 69f 70f
8:36 6 10 mph 1012.3mb 69f 70f
8:30 5 7 mph 1012.1mb 69f 70f
8:24 5 7 mph 1012mb 69f 70f
8:18 3 8 mph 1011.9mb 69f 70f
8:12 6 9 mph 1011.9mb 69f 70f
8:06 3 8 mph 1011.8mb 69f 70f
8:00 5 7 mph 1011.6mb 69f 70f
7:54 5 8 mph 1011.6mb 69f 70f
7:48 8 11 mph 1011.5mb 68f 70f
7:42 7 10 mph 1011.4mb 68f 70f
7:36 7 13 mph 1011.3mb 68f 70f
7:30 6 11 mph 1011.3mb 68f 71f
7:24 8 11 mph 1011.4mb 67f 71f
7:18 8 13 mph 1011.5mb 67f 71f
7:12 7 13 mph 1011.6mb 67f 71f
7:06 9 14 mph 1011.3mb 67f 72f
7:00 9 13 mph 1011.4mb 67f 72f
6:54 6 10 mph 1011.4mb 67f 72f
6:48 8 11 mph 1011.3mb 67f 72f
6:42 8 13 mph 1011.3mb 67f 72f
6:36 7 10 mph 1011.2mb 67f 73f
6:30 7 11 mph 1011.1mb 67f 73f
6:24 9 13 mph 1011.1mb 67f 73f
6:18 9 14 mph 1011.1mb 67f 73f
6:12 7 11 mph 1011.2mb 67f 73f
6:06 7 13 mph 1011mb 67f 73f
6:00 8 11 mph 1011mb 67f 75f
5:54 7 11 mph 1011mb 67f 75f
5:48 6 11 mph 1010.8mb 67f 74f
5:42 8 10 mph 1010.8mb 67f 74f
5:36 8 11 mph 1010.7mb 68f 75f
5:30 8 10 mph 1010.8mb 68f 75f
5:24 7 10 mph 1010.6mb 69f 75f
5:18 8 11 mph 1010.7mb 68f 75f
5:12 9 13 mph 1010.8mb 68f 75f
5:06 9 14 mph 1010.6mb 69f 75f
5:00 10 13 mph 1010.7mb 69f 75f
4:54 9 11 mph 1010.7mb 71f 75f
4:48 9 13 mph 1010.6mb 70f 75f
4:42 7 11 mph 1010.6mb 69f 75f
4:36 3 6 mph 1010.5mb 69f 76f
4:30 5 8 mph 1010.5mb 70f 76f
4:24 7 10 mph 1010.6mb 70f 75f
4:18 8 11 mph 1010.5mb 69f 75f
4:12 8 10 mph 1010.5mb 69f 74f
4:06 7 10 mph 1010.7mb 69f 74f
4:00 7 13 mph 1010.7mb 69f 74f
3:54 9 13 mph 1010.6mb 70f 74f
3:48 9 11 mph 1010.7mb 70f 74f
3:42 3 6 mph 1010.7mb 70f 74f
3:36 5 9 mph 1010.8mb 70f 75f
3:30 6 11 mph 1010.7mb 69f 75f
3:24 8 11 mph 1010.6mb 69f 75f
3:18 8 11 mph 1010.5mb 69f 75f
3:12 8 13 mph 1010.6mb 70f 75f
3:06 8 10 mph 1010.6mb 70f 75f
3:00 6 11 mph 1010.7mb 69f 75f
2:54 9 11 mph 1010.7mb 68f 75f
2:48 8 13 mph 1010.6mb 68f 75f
2:42 9 11 mph 1010.6mb 68f 75f
2:36 5 7 mph 1010.7mb 68f 75f
2:30 6 9 mph 1010.7mb 68f 75f
2:24 8 11 mph 1010.8mb 68f 75f
2:18 8 11 mph 1010.8mb 68f 75f
2:12 5 8 mph 1010.8mb 68f 75f
2:06 5 9 mph 1010.8mb 68f 75f
2:00 3 10 mph 1010.7mb 68f 75f
1:54 8 14 mph 1010.6mb 68f 74f
1:48 11 16 mph 1010.7mb 68f 74f
1:42 9 13 mph 1010.7mb 68f 74f
1:36 10 16 mph 1010.7mb 68f 74f
1:30 6 9 mph 1010.7mb 68f 74f
1:24 5 10 mph 1010.8mb 68f 75f
1:18 6 10 mph 1010.8mb 68f 74f
1:12 9 11 mph 1010.7mb 68f 74f
1:06 8 11 mph 1010.6mb 68f 74f
1:00 7 11 mph 1010.6mb 68f 74f
12:54 5 10 mph 1010.6mb 68f 74f